Regional Weather Roundup
Issued by NWS Sterling, VA

Current Version | Previous Version | Text Only | Print | Product List | Glossary On
Versions: 1 2 3 4 5 6 7 8 9 10 11 12 13 14 15 16 17 18 19 20 21 22 23 24 25 26 27
000
ASUS41 KLWX 241511
RWRLWX

REGIONAL WEATHER ROUNDUP
NATIONAL WEATHER SERVICE BALTIMORE MD/WASHINGTON DC
1100 AM EDT THU MAY 24 2018

Note: "FAIR" indicates few or no clouds below 12,000 feet
with no significant weather and/or obstructions to visibility.
 TC=TEMPERATURE CELSIUS

 * =Non NWS site. Station does not report precipitation (e.g. rain,
    snow, etc.), thunder, or fog.

DCZ001-MDZ009-015-VAZ040>042-051-053>054-241600-
WASHINGTON METRO

CITY           SKY/WX    TMP DP  RH WIND       PRES   REMARKS
WASHINGTON NAT FAIR      79  49  34 NE5       30.19S
DULLES         FAIR      76  53  44 N9        30.20S
ANDREWS AFB    FAIR      77  51  40 N7        30.18S
FT BELVOIR     FAIR      80  52  37 NW6       30.19S
QUANTICO       FAIR      76  63  64 E7        30.20S
COLLEGE PARK*  FAIR      76  50  39 N3        30.19R
LEESBURG*      FAIR      77  54  44 NE8       30.22S
MANASSAS*      FAIR      78  52  40 NE10      30.20S
GAITHERSBURG*  FAIR      76  51  41 NE6       30.22S

$$

MDZ006>007-011-014-241600-
BALTIMORE METRO

CITY           SKY/WX    TMP DP  RH WIND       PRES   REMARKS
BWI AIRPORT    FAIR      79  52  38 N9        30.18R
MD SCIENCE CTR   N/A     80  46  30 MISG      30.21R
MARTIN STATE   SUNNY     79  52  38 N12       30.20R
ANNAPOLIS        N/A    N/A N/A N/A MISG      30.18R
FORT MEADE*    FAIR      77  50  38 NE7       30.21S

$$

MDZ012-015-019>023-241600-
MARYLAND EASTERN SHORE

CITY           SKY/WX    TMP DP  RH WIND       PRES   REMARKS
OCEAN CITY     FAIR      77  58  51 N10       30.16R
SALISBURY      FAIR      79  57  46 VRB3      30.16R
BAY BRIDGE AP* FAIR      73  57  56 N7        30.18S
CAMBRIDGE*     SUNNY     75  55  50 N7        30.17S
EASTON*        SUNNY     79  55  44 N7        30.21R

$$

MDZ017>025-241600-
SOUTHERN MARYLAND

CITY           SKY/WX    TMP DP  RH WIND       PRES   REMARKS
PATUXENT RIVER FAIR      79  56  45 N10       30.17S
ST INIGOES     FAIR      77  57  50 VRB6      30.17R
LEONARDTOWN*   FAIR      73  54  49 NE5       30.20R

$$

MDZ003>005-241600-
NORTH CENTRAL MARYLAND

CITY           SKY/WX    TMP DP  RH WIND       PRES   REMARKS
FREDERICK*     SUNNY     79  45  29 NE10      30.23S
HAGERSTOWN APT FAIR      74  51  44 CALM      30.22S
WESTMINSTER*   FAIR      73  46  38 NE8       30.21S

$$

MDZ501>502-241600-
WESTERN MARYLAND

CITY           SKY/WX    TMP DP  RH WIND       PRES   REMARKS
OAKLAND*       FAIR      66  45  45 E9        30.30R
CUMBERLAND*    FAIR      72  55  56 CALM      30.28S

$$

VAZ025>031-241600-
SHENANDOAH VALLEY

CITY           SKY/WX    TMP DP  RH WIND       PRES   REMARKS
WINCHESTER*    FAIR      72  50  46 CALM      30.25R
FRONT ROYAL*   FAIR      73  55  53 N3        30.23S
LURAY*         FAIR      73  50  43 N8        30.24S
NEW MARKET*    FAIR      73  55  53 E7        30.22S
STAUNTON*      FAIR      72  57  59 N6        30.26S
WAYNESBORO*    FAIR      71  59  65 N3        30.25S

$$

WVZ021-048>050-054>055-241600-
EASTERN WEST VIRGINIA PANHANDLE

CITY           SKY/WX    TMP DP  RH WIND       PRES   REMARKS
MARTINSBURG    FAIR      76  49  38 N6        30.22S
PETERSBURG*    FAIR      71  58  61 CALM      30.25S

$$

VAZ036>039-050-241600-
CENTRAL FOOTHILLS

CITY           SKY/WX    TMP DP  RH WIND       PRES   REMARKS
CHARLOTTESVILL FAIR      80  48  32 NE12G20   30.21S
CULPEPER*      FAIR      78  51  39 N9        30.22R
ORANGE*        FAIR      75  54  46 N8        30.21S
GORDONSVILLE*  FAIR      76  55  47 NE9       30.20S
WARRENTON*     FAIR      78  47  33 N9        30.20S

$$

VAZ055>057-241600-
NORTH AND CENTRAL PIEDMONT

CITY           SKY/WX    TMP DP  RH WIND       PRES   REMARKS
FREDERICKSBRG* FAIR      77  54  44 NE3       30.19S
STAFFORD*      FAIR      77  55  45 NE3       30.24R

$$

NCZ024-NYZ072-PAZ021-071-VAZ022-071-241600-
OTHER REGIONAL OBSERVATIONS

CITY           SKY/WX    TMP DP  RH WIND       PRES   REMARKS
NEW YORK CITY  FAIR      75  38  26 CALM      30.16S
PHILADELPHIA   FAIR      77  40  26 N12       30.17R
PITTSBURGH     FAIR      72  53  51 VRB6      30.24S
ROANOKE        FAIR      76  58  53 VRB3      30.25R
RICHMOND       FAIR      79  57  46 NE10      30.18S
RALEIGH        PTSUNNY   79  62  56 E10       30.19R

$$

ANZ530>537-241600-
MARINE OBSERVATIONS

STATION/POSITION TIME  TEMP    WIND        PRES
                       AIR SEA DIR/SP/G
                 (UTC) (F)     (DEG/KT/KT) (MB)
THOMAS PT LIGHT  1500   71 69   20/ 10/ 11 1022.9R
BALT KEY BRIDGE  1448   75      20/ 12/ 14 1021.9R
COVE POINT       1448   70     360/ 11/ 14 1022.6R
LEWISETTA        1448   74 74   10/  7/  9 1021.9R
SOLOMONS ISLAND  1448   73 71   10/  7/ 10 1021.7R
PINEY POINT      1448           40/  6/  7   N/A

$$





USA.gov is the U.S. government's official web portal to all federal, state and local government web resources and services.